| time (UTC) | temp F | wind direction | speed knots | gust knots | rain 1hr in | rain 24hr in | rain mn in | humidity % | barometer mb |
| 20260507190042 | 63 | 106 | 0.9 | 7.0 | 0.00 | 0.20 | 0.03 | 32 | 1005.5 |
| 20260507185527 | 63 | 227 | 2.6 | 7.0 | 0.00 | 0.22 | 0.03 | 32 | 1005.6 |
| 20260507185025 | 63 | 62 | 0.9 | 3.5 | 0.00 | 0.22 | 0.03 | 33 | 1005.6 |
| 20260507184554 | 63 | 37 | 0.9 | 5.2 | 0.00 | 0.22 | 0.03 | 31 | 1005.6 |
| 20260507184024 | 63 | 295 | 0.9 | 5.2 | 0.00 | 0.22 | 0.03 | 35 | 1005.6 |
| 20260507183525 | 64 | 153 | 1.7 | 5.2 | 0.00 | 0.22 | 0.03 | 31 | 1005.6 |
| 20260507183045 | 64 | 8 | 0.9 | 9.6 | 0.00 | 0.22 | 0.03 | 39 | 1005.7 |
| 20260507182525 | 63 | 337 | 0.9 | 9.6 | 0.00 | 0.22 | 0.03 | 37 | 1005.6 |
| 20260507182025 | 63 | 211 | 2.6 | 9.6 | 0.00 | 0.22 | 0.03 | 35 | 1005.6 |
| 20260507181539 | 63 | 11 | 0.9 | 7.8 | 0.00 | 0.22 | 0.03 | 33 | 1005.6 |
| 20260507181031 | 63 | 332 | 2.6 | 7.8 | 0.00 | 0.22 | 0.03 | 33 | 1005.8 |
| 20260507180524 | 63 | 79 | 1.7 | 6.1 | 0.00 | 0.22 | 0.03 | 40 | 1005.7 |
| 20260507180043 | 63 | 354 | 1.7 | 6.1 | 0.00 | 0.22 | 0.03 | 34 | 1005.7 |
| 20260507175525 | 64 | 66 | 2.6 | 5.2 | 0.00 | 0.22 | 0.03 | 32 | 1005.8 |
| 20260507175024 | 64 | 27 | 0.9 | 5.2 | 0.00 | 0.22 | 0.03 | 37 | 1005.7 |
| 20260507174536 | 64 | 7 | 0.9 | 4.3 | 0.00 | 0.22 | 0.03 | 35 | 1005.7 |
| 20260507174026 | 64 | 312 | 0.9 | 6.1 | 0.00 | 0.22 | 0.03 | 34 | 1005.8 |
| 20260507173527 | 64 | 268 | 0.0 | 6.1 | 0.00 | 0.22 | 0.03 | 37 | 1005.7 |
| 20260507173043 | 63 | 339 | 2.6 | 8.7 | 0.00 | 0.22 | 0.03 | 39 | 1005.5 |
| 20260507172528 | 63 | 273 | 0.9 | 8.7 | 0.00 | 0.22 | 0.03 | 33 | 1005.6 |
| 20260507172025 | 63 | 350 | 2.6 | 10.4 | 0.00 | 0.22 | 0.03 | 36 | 1005.7 |
| 20260507171547 | 62 | 328 | 0.9 | 11.3 | 0.00 | 0.22 | 0.03 | 38 | 1005.9 |
| 20260507171026 | 63 | 14 | 3.5 | 11.3 | 0.00 | 0.22 | 0.03 | 34 | 1005.9 |
| 20260507170526 | 63 | 54 | 1.7 | 7.0 | 0.00 | 0.22 | 0.03 | 38 | 1006.0 |
| 20260507170045 | 62 | 101 | 1.7 | 7.0 | 0.00 | 0.22 | 0.03 | 44 | 1006.2 |
| 20260507165527 | 63 | 238 | 1.7 | 7.0 | 0.00 | 0.22 | 0.03 | 40 | 1006.2 |
| 20260507165027 | 62 | 262 | 1.7 | 6.1 | 0.00 | 0.22 | 0.03 | 40 | 1006.2 |
| 20260507164559 | 63 | 203 | 1.7 | 7.8 | 0.00 | 0.22 | 0.03 | 41 | 1006.4 |
| 20260507164024 | 63 | 170 | 1.7 | 7.8 | 0.00 | 0.22 | 0.03 | 40 | 1006.4 |
| 20260507163526 | 62 | 274 | 1.7 | 10.4 | 0.00 | 0.22 | 0.03 | 43 | 1006.4 |
| 20260507163042 | 62 | 130 | 1.7 | 10.4 | 0.00 | 0.22 | 0.03 | 47 | 1006.7 |
| 20260507162525 | 62 | 3 | 3.5 | 10.4 | 0.00 | 0.22 | 0.03 | 44 | 1006.7 |
| 20260507162025 | 62 | 4 | 1.7 | 12.2 | 0.00 | 0.22 | 0.03 | 46 | 1006.7 |
| 20260507161547 | 62 | 63 | 2.6 | 12.2 | 0.00 | 0.22 | 0.03 | 44 | 1006.7 |
| 20260507161025 | 62 | 333 | 2.6 | 12.2 | 0.00 | 0.22 | 0.03 | 48 | 1006.7 |
| 20260507160528 | 61 | 88 | 2.6 | 9.6 | 0.00 | 0.22 | 0.03 | 49 | 1006.6 |
| 20260507160040 | 62 | 58 | 3.5 | 9.6 | 0.00 | 0.22 | 0.03 | 50 | 1006.8 |
| 20260507155528 | 62 | 40 | 2.6 | 6.1 | 0.00 | 0.22 | 0.03 | 52 | 1006.7 |
| 20260507155026 | 63 | 44 | 0.9 | 4.3 | 0.00 | 0.22 | 0.03 | 49 | 1006.7 |
| 20260507154537 | 61 | 326 | 1.7 | 7.0 | 0.00 | 0.22 | 0.03 | 50 | 1006.7 |
| 20260507154028 | 60 | 103 | 0.9 | 7.0 | 0.00 | 0.22 | 0.03 | 60 | 1006.8 |
| 20260507153525 | 60 | 291 | 1.7 | 7.0 | 0.00 | 0.22 | 0.03 | 53 | 1006.8 |
| 20260507153039 | 61 | 0 | 2.6 | 6.1 | 0.00 | 0.22 | 0.03 | 55 | 1006.8 |
| 20260507152524 | 62 | 274 | 0.9 | 7.8 | 0.00 | 0.22 | 0.03 | 53 | 1006.8 |
| 20260507152028 | 61 | 236 | 1.7 | 7.8 | 0.00 | 0.22 | 0.03 | 55 | 1006.9 |
| 20260507151535 | 59 | 1 | 1.7 | 7.0 | 0.00 | 0.22 | 0.03 | 55 | 1006.9 |
| 20260507151025 | 59 | 125 | 1.7 | 7.0 | 0.00 | 0.22 | 0.03 | 56 | 1007.1 |
| 20260507150526 | 60 | 347 | 2.6 | 7.0 | 0.00 | 0.22 | 0.03 | 56 | 1007.1 |
| 20260507150043 | 59 | 165 | 0.9 | 5.2 | 0.00 | 0.22 | 0.03 | 59 | 1007.2 |
| 20260507145524 | 58 | 224 | 0.9 | 6.1 | 0.00 | 0.22 | 0.03 | 59 | 1007.3 |
| 20260507145031 | 59 | 19 | 1.7 | 6.1 | 0.00 | 0.22 | 0.03 | 62 | 1007.3 |
| 20260507144540 | 58 | 1 | 0.0 | 6.1 | 0.00 | 0.22 | 0.03 | 61 | 1007.3 |
| 20260507144025 | 58 | 58 | 0.9 | 6.1 | 0.00 | 0.22 | 0.03 | 59 | 1007.4 |
| 20260507143526 | 59 | 46 | 1.7 | 7.0 | 0.00 | 0.22 | 0.03 | 59 | 1007.4 |
| 20260507143100 | 59 | 61 | 2.6 | 7.0 | 0.00 | 0.22 | 0.03 | 59 | 1007.4 |
| 20260507142527 | 59 | 339 | 0.0 | 4.3 | 0.00 | 0.22 | 0.03 | 64 | 1007.3 |
| 20260507142025 | 58 | 304 | 1.7 | 4.3 | 0.00 | 0.22 | 0.03 | 58 | 1007.3 |
| 20260507141604 | 58 | 262 | 0.0 | 2.6 | 0.00 | 0.22 | 0.03 | 61 | 1007.4 |
| 20260507141025 | 58 | 232 | 0.0 | 3.5 | 0.00 | 0.22 | 0.03 | 62 | 1007.4 |
| 20260507140525 | 58 | 345 | 0.0 | 3.5 | 0.00 | 0.22 | 0.03 | 63 | 1007.4 |
| 20260507140042 | 57 | 47 | 0.9 | 3.5 | 0.00 | 0.22 | 0.03 | 62 | 1007.4 |
| 20260507135528 | 58 | 293 | 0.9 | 3.5 | 0.00 | 0.22 | 0.03 | 65 | 1007.5 |
| 20260507135028 | 57 | 210 | 1.7 | 3.5 | 0.00 | 0.22 | 0.03 | 63 | 1007.3 |
| 20260507134540 | 58 | 120 | 0.9 | 2.6 | 0.00 | 0.22 | 0.03 | 62 | 1007.3 |
| 20260507134029 | 58 | 204 | 0.9 | 3.5 | 0.00 | 0.22 | 0.03 | 62 | 1007.3 |
| 20260507133530 | 58 | 87 | 0.9 | 4.3 | 0.00 | 0.22 | 0.03 | 70 | 1007.2 |
| 20260507133037 | 57 | 134 | 0.9 | 4.3 | 0.00 | 0.22 | 0.03 | 65 | 1007.2 |
| 20260507132524 | 57 | 79 | 0.0 | 4.3 | 0.00 | 0.22 | 0.03 | 68 | 1007.4 |
| 20260507132024 | 57 | 333 | 0.9 | 6.1 | 0.00 | 0.22 | 0.03 | 66 | 1007.5 |
| 20260507131546 | 56 | 243 | 0.0 | 6.1 | 0.00 | 0.22 | 0.03 | 72 | 1007.6 |
| 20260507131028 | 55 | 69 | 1.7 | 6.1 | 0.00 | 0.22 | 0.03 | 70 | 1007.7 |
| 20260507130527 | 55 | 10 | 2.6 | 6.1 | 0.00 | 0.22 | 0.03 | 68 | 1007.7 |
| 20260507130041 | 55 | 325 | 1.7 | 6.1 | 0.00 | 0.22 | 0.03 | 69 | 1007.7 |
| 20260507125528 | 55 | 78 | 1.7 | 5.2 | 0.00 | 0.22 | 0.03 | 70 | 1007.7 |
| 20260507125027 | 56 | 91 | 0.9 | 2.6 | 0.00 | 0.22 | 0.03 | 70 | 1007.7 |
| 20260507124542 | 55 | 349 | 0.0 | 3.5 | 0.00 | 0.22 | 0.03 | 74 | 1007.8 |
| 20260507124031 | 55 | 262 | 0.0 | 3.5 | 0.00 | 0.22 | 0.03 | 75 | 1007.7 |
| 20260507123525 | 54 | 288 | 0.9 | 3.5 | 0.00 | 0.22 | 0.03 | 77 | 1007.8 |
| 20260507123040 | 53 | 51 | 0.0 | 5.2 | 0.00 | 0.22 | 0.03 | 81 | 1007.9 |
| 20260507122524 | 53 | 13 | 2.6 | 5.2 | 0.00 | 0.22 | 0.03 | 76 | 1007.9 |
| 20260507122027 | 52 | 25 | 0.9 | 3.5 | 0.00 | 0.22 | 0.03 | 80 | 1008.0 |
| 20260507121542 | 51 | 4 | 0.0 | 4.3 | 0.00 | 0.22 | 0.03 | 83 | 1007.9 |
| 20260507121028 | 50 | 37 | 0.0 | 4.3 | 0.00 | 0.22 | 0.03 | 82 | 1008.0 |
| 20260507120529 | 50 | 43 | 0.9 | 4.3 | 0.00 | 0.22 | 0.03 | 81 | 1008.0 |
| 20260507120036 | 51 | 4 | 0.0 | 3.5 | 0.00 | 0.22 | 0.03 | 82 | 1008.0 |
| 20260507115525 | 51 | 298 | 0.9 | 5.2 | 0.00 | 0.22 | 0.03 | 82 | 1008.1 |
| 20260507115030 | 51 | 12 | 0.9 | 5.2 | 0.00 | 0.22 | 0.03 | 83 | 1007.9 |
| 20260507114541 | 50 | 26 | 0.0 | 0.9 | 0.00 | 0.22 | 0.03 | 85 | 1008.0 |
| 20260507114031 | 50 | 20 | 0.0 | 1.7 | 0.00 | 0.22 | 0.03 | 87 | 1007.9 |
| 20260507113528 | 49 | 0 | 0.0 | 1.7 | 0.00 | 0.22 | 0.03 | 87 | 1007.9 |
| 20260507113037 | 49 | 15 | 0.0 | 0.9 | 0.00 | 0.22 | 0.03 | 88 | 1008.0 |
| 20260507112530 | 49 | 356 | 0.0 | 0.9 | 0.00 | 0.22 | 0.03 | 89 | 1008.0 |
| 20260507112025 | 48 | 0 | 0.0 | 1.7 | 0.00 | 0.22 | 0.03 | 89 | 1007.9 |
| 20260507111536 | 48 | 0 | 0.0 | 1.7 | 0.00 | 0.22 | 0.03 | 89 | 1007.8 |
| 20260507111024 | 48 | 0 | 0.0 | 0.0 | 0.00 | 0.22 | 0.03 | 91 | 1007.7 |
| 20260507110527 | 48 | 0 | 0.0 | 0.0 | 0.00 | 0.22 | 0.03 | 91 | 1007.5 |
| 20260507110050 | 47 | 0 | 0.0 | 0.0 | 0.00 | 0.22 | 0.03 | 91 | 1007.7 |
| 20260507105525 | 47 | 0 | 0.0 | 0.0 | 0.00 | 0.22 | 0.03 | 91 | 1007.7 |
| 20260507105027 | 47 | 0 | 0.0 | 0.0 | 0.00 | 0.22 | 0.03 | 91 | 1007.9 |
| 20260507104546 | 47 | 0 | 0.0 | 0.0 | 0.00 | 0.22 | 0.03 | 91 | 1007.8 |
| 20260507104025 | 47 | 0 | 0.0 | 1.7 | 0.00 | 0.22 | 0.03 | 91 | 1007.6 |
| 20260507103524 | 47 | 0 | 0.0 | 1.7 | 0.00 | 0.22 | 0.03 | 91 | 1007.3 |
| 20260507103042 | 47 | 6 | 0.0 | 0.9 | 0.00 | 0.22 | 0.03 | 91 | 1007.2 |
| 20260507102525 | 47 | 0 | 0.0 | 0.0 | 0.00 | 0.22 | 0.03 | 91 | 1007.1 |
| 20260507102027 | 47 | 0 | 0.0 | 0.9 | 0.00 | 0.22 | 0.03 | 91 | 1006.9 |
| 20260507101542 | 47 | 0 | 0.0 | 0.9 | 0.00 | 0.22 | 0.03 | 91 | 1007.0 |
| 20260507101028 | 47 | 0 | 0.0 | 0.9 | 0.00 | 0.22 | 0.03 | 90 | 1006.9 |
| 20260507100525 | 47 | 25 | 0.0 | 0.9 | 0.00 | 0.22 | 0.03 | 91 | 1007.0 |
| 20260507100046 | 47 | 0 | 0.0 | 0.9 | 0.00 | 0.22 | 0.03 | 90 | 1007.1 |
| 20260507095530 | 47 | 0 | 0.0 | 0.9 | 0.00 | 0.22 | 0.03 | 90 | 1007.0 |
| 20260507095028 | 47 | 0 | 0.0 | 1.7 | 0.00 | 0.22 | 0.03 | 90 | 1006.8 |
| 20260507094537 | 47 | 344 | 0.0 | 2.6 | 0.00 | 0.22 | 0.03 | 90 | 1006.7 |
| 20260507094026 | 47 | 343 | 0.0 | 2.6 | 0.00 | 0.22 | 0.03 | 90 | 1007.2 |
| 20260507093525 | 47 | 0 | 0.0 | 0.9 | 0.00 | 0.22 | 0.03 | 90 | 1007.3 |
| 20260507093037 | 47 | 107 | 0.0 | 3.5 | 0.00 | 0.22 | 0.03 | 90 | 1007.0 |
| 20260507092524 | 48 | 0 | 0.0 | 3.5 | 0.00 | 0.22 | 0.03 | 90 | 1007.1 |
| 20260507092031 | 48 | 0 | 0.0 | 1.7 | 0.00 | 0.22 | 0.03 | 90 | 1007.2 |
| 20260507091543 | 48 | 0 | 0.0 | 1.7 | 0.00 | 0.22 | 0.03 | 90 | 1007.0 |
| 20260507091025 | 48 | 0 | 0.0 | 0.9 | 0.00 | 0.22 | 0.03 | 90 | 1007.3 |
| 20260507090528 | 48 | 0 | 0.0 | 3.5 | 0.00 | 0.22 | 0.03 | 89 | 1007.3 |
| 20260507090049 | 48 | 280 | 0.0 | 3.5 | 0.00 | 0.22 | 0.03 | 89 | 1007.5 |
| 20260507085528 | 48 | 279 | 0.0 | 3.5 | 0.00 | 0.22 | 0.03 | 89 | 1007.4 |
| 20260507085027 | 48 | 0 | 0.0 | 0.9 | 0.00 | 0.22 | 0.03 | 90 | 1007.2 |
| 20260507084548 | 48 | 0 | 0.0 | 1.7 | 0.01 | 0.22 | 0.03 | 90 | 1007.3 |
| 20260507084028 | 48 | 0 | 0.0 | 1.7 | 0.01 | 0.22 | 0.03 | 90 | 1007.4 |
| 20260507083525 | 49 | 342 | 0.0 | 2.6 | 0.02 | 0.22 | 0.03 | 90 | 1006.9 |
| 20260507083039 | 49 | 23 | 0.9 | 2.6 | 0.02 | 0.22 | 0.03 | 90 | 1007.0 |
| 20260507082528 | 49 | 0 | 0.0 | 2.6 | 0.02 | 0.22 | 0.03 | 91 | 1006.9 |
| 20260507082028 | 49 | 0 | 0.0 | 2.6 | 0.02 | 0.22 | 0.03 | 91 | 1006.8 |
| 20260507081534 | 49 | 0 | 0.0 | 1.7 | 0.02 | 0.22 | 0.03 | 91 | 1006.7 |
| 20260507081027 | 49 | 353 | 0.0 | 1.7 | 0.02 | 0.22 | 0.03 | 91 | 1006.6 |
| 20260507080528 | 49 | 348 | 0.0 | 2.6 | 0.02 | 0.22 | 0.03 | 91 | 1006.7 |
| 20260507080041 | 49 | 0 | 0.0 | 2.6 | 0.02 | 0.22 | 0.03 | 90 | 1006.7 |
| 20260507075525 | 50 | 0 | 0.0 | 2.6 | 0.02 | 0.22 | 0.03 | 90 | 1006.7 |
| 20260507075025 | 50 | 0 | 0.0 | 2.6 | 0.02 | 0.22 | 0.03 | 90 | 1006.9 |
| 20260507074541 | 50 | 36 | 0.0 | 2.6 | 0.01 | 0.21 | 0.02 | 90 | 1007.0 |
| 20260507074027 | 50 | 115 | 0.0 | 4.3 | 0.01 | 0.21 | 0.02 | 89 | 1006.6 |
| 20260507073528 | 50 | 0 | 0.9 | 4.3 | 0.00 | 0.20 | 0.01 | 90 | 1006.8 |
| 20260507073040 | 51 | 0 | 0.9 | 4.3 | 0.00 | 0.20 | 0.01 | 91 | 1007.0 |
| 20260507072530 | 51 | 0 | 0.0 | 3.5 | 0.00 | 0.20 | 0.01 | 92 | 1006.5 |
| 20260507072026 | 51 | 0 | 0.0 | 1.7 | 0.00 | 0.20 | 0.01 | 92 | 1006.5 |
| 20260507071537 | 51 | 0 | 0.0 | 1.7 | 0.00 | 0.20 | 0.01 | 92 | 1006.2 |
| 20260507071031 | 51 | 0 | 0.0 | 0.9 | 0.00 | 0.20 | 0.01 | 93 | 1006.2 |
| 20260507070527 | 51 | 0 | 0.0 | 0.9 | 0.00 | 0.20 | 0.01 | 92 | 1006.1 |
| 20260507070043 | 51 | 0 | 0.0 | 0.0 | 0.00 | 0.20 | 0.01 | 92 | 1006.2 |
| 20260507065525 | 51 | 0 | 0.0 | 0.0 | 0.00 | 0.20 | 0.01 | 92 | 1006.1 |
| 20260507065028 | 51 | 0 | 0.0 | 0.0 | 0.00 | 0.20 | 0.01 | 92 | 1006.0 |
| 20260507064601 | 51 | 0 | 0.0 | 0.9 | 0.00 | 0.20 | 0.01 | 92 | 1006.0 |
| 20260507064027 | 51 | 0 | 0.0 | 0.9 | 0.00 | 0.20 | 0.01 | 91 | 1005.9 |
| 20260507063527 | 51 | 0 | 0.0 | 1.7 | 0.00 | 0.20 | 0.01 | 91 | 1006.2 |
| 20260507063037 | 51 | 0 | 0.0 | 1.7 | 0.00 | 0.20 | 0.01 | 91 | 1006.1 |
| 20260507062530 | 51 | 0 | 0.0 | 0.9 | 0.00 | 0.20 | 0.01 | 91 | 1006.2 |
| 20260507062026 | 51 | 0 | 0.0 | 0.9 | 0.00 | 0.20 | 0.01 | 91 | 1006.2 |
| 20260507061540 | 51 | 0 | 0.0 | 3.5 | 0.00 | 0.20 | 0.01 | 91 | 1006.1 |
| 20260507061024 | 51 | 0 | 0.0 | 3.5 | 0.00 | 0.20 | 0.01 | 90 | 1006.0 |
| 20260507060524 | 51 | 0 | 0.9 | 3.5 | 0.00 | 0.20 | 0.01 | 90 | 1006.1 |
| 20260507060051 | 52 | 0 | 0.0 | 4.3 | 0.00 | 0.20 | 0.01 | 90 | 1006.2 |
| 20260507055526 | 52 | 346 | 0.9 | 4.3 | 0.00 | 0.20 | 0.01 | 90 | 1006.1 |
| 20260507055028 | 52 | 82 | 0.0 | 2.6 | 0.00 | 0.20 | 0.01 | 91 | 1006.2 |
| 20260507054536 | 52 | 17 | 0.9 | 2.6 | 0.00 | 0.20 | 0.01 | 91 | 1006.3 |
| 20260507054024 | 52 | 325 | 0.9 | 4.3 | 0.00 | 0.20 | 0.01 | 92 | 1006.4 |
| 20260507053524 | 53 | 343 | 0.9 | 4.3 | 0.00 | 0.20 | 0.01 | 92 | 1006.8 |
| 20260507053044 | 53 | 360 | 0.9 | 3.5 | 0.00 | 0.20 | 0.01 | 92 | 1006.5 |
| 20260507052527 | 53 | 334 | 0.0 | 2.6 | 0.00 | 0.20 | 0.01 | 93 | 1006.5 |
| 20260507052025 | 54 | 0 | 0.0 | 1.7 | 0.00 | 0.20 | 0.01 | 93 | 1006.5 |
| 20260507051553 | 54 | 8 | 0.0 | 1.7 | 0.00 | 0.20 | 0.01 | 93 | 1006.6 |
| 20260507051026 | 54 | 290 | 0.0 | 1.7 | 0.00 | 0.20 | 0.01 | 93 | 1006.6 |
| 20260507050527 | 54 | 0 | 0.0 | 1.7 | 0.00 | 0.20 | 0.01 | 93 | 1006.6 |
| 20260507050044 | 54 | 0 | 0.0 | 3.5 | 0.01 | 0.20 | 0.01 | 93 | 1006.5 |
| 20260507045524 | 54 | 7 | 0.9 | 3.5 | 0.02 | 0.20 | 0.01 | 93 | 1006.4 |
| 20260507045026 | 54 | 82 | 0.0 | 4.3 | 0.02 | 0.20 | 0.01 | 93 | 1006.5 |
| 20260507044539 | 54 | 15 | 0.9 | 4.3 | 0.02 | 0.20 | 0.01 | 93 | 1006.6 |
| 20260507044023 | 54 | 0 | 0.9 | 1.7 | 0.02 | 0.20 | 0.01 | 93 | 1006.6 |
| 20260507043526 | 54 | 25 | 0.0 | 2.6 | 0.02 | 0.20 | 0.01 | 92 | 1006.5 |
| 20260507043041 | 55 | 16 | 0.0 | 5.2 | 0.02 | 0.20 | 0.01 | 93 | 1006.3 |
| 20260507042523 | 55 | 0 | 0.0 | 5.2 | 0.02 | 0.20 | 0.01 | 92 | 1006.4 |
| 20260507042024 | 55 | 14 | 0.9 | 3.5 | 0.02 | 0.20 | 0.01 | 92 | 1006.3 |
| 20260507041537 | 56 | 51 | 0.9 | 4.3 | 0.02 | 0.20 | 0.01 | 92 | 1006.4 |
| 20260507041027 | 56 | 359 | 0.9 | 4.3 | 0.02 | 0.20 | 0.01 | 92 | 1006.2 |
| 20260507040525 | 57 | 356 | 0.9 | 4.3 | 0.02 | 0.20 | 0.01 | 92 | 1006.4 |
| 20260507040042 | 57 | 300 | 0.0 | 2.6 | 0.01 | 0.19 | 0.00 | 93 | 1006.4 |
| 20260507035526 | 58 | 333 | 0.0 | 4.3 | 0.00 | 0.18 | 0.18 | 93 | 1006.4 |
| 20260507035025 | 58 | 0 | 0.9 | 4.3 | 0.00 | 0.18 | 0.18 | 93 | 1006.4 |
| 20260507034538 | 58 | 288 | 1.7 | 4.3 | 0.00 | 0.18 | 0.18 | 94 | 1006.2 |
| 20260507034024 | 58 | 68 | 0.0 | 1.7 | 0.01 | 0.18 | 0.18 | 94 | 1006.1 |
| 20260507033528 | 58 | 11 | 0.0 | 1.7 | 0.01 | 0.18 | 0.18 | 94 | 1005.9 |
| 20260507033038 | 58 | 0 | 0.0 | 1.7 | 0.01 | 0.18 | 0.18 | 94 | 1005.8 |
| 20260507032526 | 58 | 0 | 0.0 | 1.7 | 0.01 | 0.18 | 0.18 | 94 | 1005.9 |
| 20260507032024 | 58 | 0 | 0.0 | 1.7 | 0.01 | 0.18 | 0.18 | 94 | 1006.0 |
| 20260507031538 | 58 | 43 | 0.0 | 1.7 | 0.01 | 0.18 | 0.18 | 95 | 1005.6 |
| 20260507031023 | 58 | 217 | 0.0 | 1.7 | 0.01 | 0.18 | 0.18 | 95 | 1005.6 |
| 20260507030527 | 58 | 184 | 0.0 | 1.7 | 0.01 | 0.18 | 0.18 | 95 | 1005.3 |
| 20260507030042 | 58 | 193 | 0.9 | 1.7 | 0.01 | 0.18 | 0.18 | 95 | 1005.3 |
| 20260507025528 | 58 | 247 | 0.0 | 2.6 | 0.01 | 0.18 | 0.18 | 95 | 1005.3 |
| 20260507025027 | 58 | 240 | 0.0 | 2.6 | 0.01 | 0.18 | 0.18 | 95 | 1005.3 |
| 20260507024542 | 58 | 0 | 0.0 | 2.6 | 0.01 | 0.18 | 0.18 | 95 | 1005.4 |
| 20260507024026 | 58 | 143 | 0.0 | 2.6 | 0.00 | 0.17 | 0.17 | 94 | 1005.3 |
| 20260507023526 | 58 | 259 | 0.0 | 2.6 | 0.00 | 0.17 | 0.17 | 94 | 1005.4 |
| 20260507023042 | 58 | 140 | 0.0 | 1.7 | 0.00 | 0.17 | 0.17 | 94 | 1005.3 |
| 20260507022527 | 58 | 122 | 0.0 | 2.6 | 0.00 | 0.17 | 0.17 | 94 | 1005.3 |
| 20260507022029 | 58 | 0 | 0.0 | 2.6 | 0.00 | 0.17 | 0.17 | 94 | 1005.3 |
| 20260507021541 | 58 | 0 | 0.0 | 3.5 | 0.00 | 0.17 | 0.17 | 94 | 1005.2 |
| 20260507021028 | 58 | 0 | 0.9 | 3.5 | 0.00 | 0.17 | 0.17 | 94 | 1005.1 |
| 20260507020525 | 58 | 136 | 0.0 | 2.6 | 0.00 | 0.17 | 0.17 | 94 | 1005.0 |
| 20260507020044 | 58 | 0 | 0.9 | 2.6 | 0.00 | 0.17 | 0.17 | 94 | 1005.0 |
| 20260507015528 | 58 | 129 | 0.0 | 2.6 | 0.00 | 0.17 | 0.17 | 94 | 1005.2 |
| 20260507015029 | 58 | 0 | 0.0 | 3.5 | 0.00 | 0.17 | 0.17 | 94 | 1005.2 |
| 20260507014547 | 58 | 0 | 0.0 | 3.5 | 0.00 | 0.17 | 0.17 | 94 | 1005.2 |
| 20260507014026 | 58 | 94 | 0.9 | 3.5 | 0.00 | 0.17 | 0.17 | 94 | 1005.2 |
| 20260507013524 | 58 | 252 | 0.0 | 2.6 | 0.00 | 0.17 | 0.17 | 94 | 1005.2 |
| 20260507013041 | 58 | 93 | 0.0 | 3.5 | 0.00 | 0.17 | 0.17 | 94 | 1005.2 |
| 20260507012525 | 58 | 0 | 0.9 | 3.5 | 0.00 | 0.17 | 0.17 | 95 | 1005.1 |
| 20260507012029 | 58 | 214 | 0.0 | 3.5 | 0.00 | 0.17 | 0.17 | 95 | 1005.2 |
| 20260507011541 | 58 | 265 | 0.9 | 3.5 | 0.00 | 0.17 | 0.17 | 95 | 1005.2 |
| 20260507011025 | 58 | 288 | 0.0 | 3.5 | 0.00 | 0.17 | 0.17 | 95 | 1005.2 |
| 20260507010527 | 58 | 179 | 0.0 | 3.5 | 0.00 | 0.17 | 0.17 | 95 | 1005.2 |
| 20260507010051 | 58 | 28 | 0.0 | 7.8 | 0.00 | 0.17 | 0.17 | 95 | 1005.2 |
| 20260507005528 | 58 | 252 | 0.0 | 7.8 | 0.00 | 0.17 | 0.17 | 95 | 1005.3 |
| 20260507005032 | 58 | 103 | 0.9 | 6.1 | 0.00 | 0.17 | 0.17 | 95 | 1005.3 |
| 20260507004537 | 58 | 181 | 0.9 | 4.3 | 0.00 | 0.17 | 0.17 | 95 | 1005.3 |
| 20260507004026 | 58 | 201 | 0.0 | 1.7 | 0.00 | 0.17 | 0.17 | 95 | 1005.3 |
| 20260507003528 | 58 | 0 | 0.0 | 3.5 | 0.00 | 0.17 | 0.17 | 95 | 1005.2 |
| 20260507003039 | 58 | 292 | 0.0 | 3.5 | 0.00 | 0.17 | 0.17 | 95 | 1005.2 |
| 20260507002525 | 58 | 274 | 0.9 | 3.5 | 0.00 | 0.17 | 0.17 | 95 | 1005.2 |
| 20260507002033 | 58 | 115 | 0.0 | 1.7 | 0.00 | 0.17 | 0.17 | 95 | 1005.2 |
| 20260507001537 | 58 | 163 | 0.0 | 2.6 | 0.00 | 0.17 | 0.17 | 94 | 1005.2 |
| 20260507001024 | 58 | 262 | 0.0 | 5.2 | 0.00 | 0.17 | 0.17 | 94 | 1005.1 |
| 20260507000525 | 58 | 212 | 0.9 | 6.1 | 0.01 | 0.17 | 0.17 | 94 | 1005.2 |
| 20260507000042 | 58 | 0 | 0.9 | 6.1 | 0.02 | 0.17 | 0.17 | 94 | 1005.1 |
| 20260506235527 | 58 | 0 | 0.0 | 3.5 | 0.04 | 0.17 | 0.17 | 94 | 1005.0 |
| 20260506235029 | 58 | 0 | 0.9 | 3.5 | 0.05 | 0.17 | 0.17 | 94 | 1005.0 |
| 20260506234534 | 58 | 41 | 0.0 | 1.7 | 0.05 | 0.17 | 0.17 | 94 | 1005.0 |
| 20260506234026 | 59 | 148 | 0.0 | 1.7 | 0.05 | 0.17 | 0.17 | 94 | 1005.0 |
| 20260506233528 | 59 | 0 | 0.0 | 1.7 | 0.05 | 0.17 | 0.17 | 94 | 1005.1 |
| 20260506233037 | 59 | 254 | 0.0 | 0.9 | 0.06 | 0.17 | 0.17 | 94 | 1005.0 |
| 20260506232526 | 59 | 281 | 0.0 | 1.7 | 0.06 | 0.17 | 0.17 | 94 | 1005.0 |
| 20260506232028 | 59 | 274 | 0.0 | 4.3 | 0.06 | 0.17 | 0.17 | 94 | 1005.0 |
| 20260506231551 | 59 | 98 | 0.0 | 4.3 | 0.06 | 0.17 | 0.17 | 93 | 1004.9 |
| 20260506231028 | 59 | 0 | 0.0 | 5.2 | 0.06 | 0.17 | 0.17 | 93 | 1005.0 |
| 20260506230526 | 59 | 128 | 0.9 | 5.2 | 0.05 | 0.16 | 0.16 | 93 | 1005.1 |
| 20260506230052 | 59 | 162 | 0.9 | 5.2 | 0.03 | 0.14 | 0.14 | 93 | 1005.0 |
| 20260506225526 | 59 | 0 | 0.0 | 1.7 | 0.03 | 0.13 | 0.13 | 93 | 1005.2 |
| 20260506225025 | 59 | 0 | 0.0 | 3.5 | 0.02 | 0.12 | 0.12 | 93 | 1005.1 |
| 20260506224543 | 59 | 147 | 0.9 | 5.2 | 0.02 | 0.12 | 0.12 | 93 | 1005.2 |
| 20260506224029 | 59 | 141 | 0.0 | 5.2 | 0.02 | 0.12 | 0.12 | 92 | 1005.2 |
| 20260506223524 | 59 | 278 | 0.9 | 5.2 | 0.02 | 0.12 | 0.12 | 92 | 1005.1 |
| 20260506223045 | 59 | 0 | 0.9 | 3.5 | 0.01 | 0.11 | 0.11 | 92 | 1005.1 |
| 20260506222525 | 59 | 279 | 0.0 | 1.7 | 0.01 | 0.11 | 0.11 | 92 | 1005.2 |
| 20260506222028 | 60 | 198 | 0.0 | 3.5 | 0.01 | 0.11 | 0.11 | 92 | 1005.2 |
| 20260506221558 | 60 | 143 | 0.0 | 3.5 | 0.01 | 0.11 | 0.11 | 92 | 1005.3 |
| 20260506221028 | 60 | 209 | 0.0 | 2.6 | 0.01 | 0.11 | 0.11 | 92 | 1005.3 |
| 20260506220526 | 60 | 177 | 0.9 | 5.2 | 0.01 | 0.11 | 0.11 | 92 | 1005.4 |
| 20260506220050 | 60 | 168 | 0.9 | 5.2 | 0.01 | 0.11 | 0.11 | 92 | 1005.4 |
| 20260506215531 | 60 | 193 | 0.9 | 2.6 | 0.00 | 0.10 | 0.10 | 92 | 1005.5 |
| 20260506215027 | 60 | 267 | 0.0 | 3.5 | 0.00 | 0.10 | 0.10 | 91 | 1005.4 |
| 20260506214540 | 60 | 0 | 0.0 | 3.5 | 0.01 | 0.10 | 0.10 | 91 | 1005.4 |
| 20260506214024 | 60 | 191 | 0.9 | 3.5 | 0.01 | 0.10 | 0.10 | 91 | 1005.5 |
| 20260506213525 | 60 | 169 | 0.9 | 3.5 | 0.01 | 0.10 | 0.10 | 91 | 1005.6 |
| 20260506213039 | 60 | 214 | 0.9 | 3.5 | 0.01 | 0.10 | 0.10 | 91 | 1005.6 |
| 20260506212528 | 60 | 232 | 0.9 | 3.5 | 0.02 | 0.10 | 0.10 | 91 | 1005.7 |
| 20260506212025 | 60 | 163 | 0.9 | 4.3 | 0.02 | 0.10 | 0.10 | 91 | 1005.7 |
| 20260506211541 | 60 | 120 | 0.9 | 4.3 | 0.03 | 0.10 | 0.10 | 91 | 1005.9 |
| 20260506211028 | 60 | 177 | 0.9 | 3.5 | 0.03 | 0.10 | 0.10 | 91 | 1006.0 |
| 20260506210527 | 60 | 214 | 0.9 | 7.0 | 0.03 | 0.10 | 0.10 | 90 | 1005.9 |
| 20260506210052 | 60 | 0 | 0.9 | 7.0 | 0.04 | 0.10 | 0.10 | 91 | 1005.9 |
| 20260506205529 | 60 | 0 | 0.9 | 7.8 | 0.04 | 0.10 | 0.10 | 90 | 1006.0 |
| 20260506205027 | 60 | 202 | 0.9 | 7.8 | 0.04 | 0.10 | 0.10 | 90 | 1006.1 |
| 20260506204541 | 60 | 84 | 0.9 | 1.7 | 0.03 | 0.09 | 0.09 | 90 | 1006.1 |
| 20260506204027 | 60 | 236 | 0.0 | 4.3 | 0.03 | 0.09 | 0.09 | 90 | 1006.1 |
| 20260506203526 | 60 | 271 | 0.9 | 4.3 | 0.03 | 0.09 | 0.09 | 90 | 1006.1 |
| 20260506203039 | 60 | 283 | 0.0 | 3.5 | 0.04 | 0.09 | 0.09 | 90 | 1006.2 |
| 20260506202528 | 60 | 278 | 0.9 | 4.3 | 0.03 | 0.08 | 0.08 | 89 | 1006.2 |
| 20260506202030 | 61 | 273 | 0.9 | 7.8 | 0.04 | 0.08 | 0.08 | 89 | 1006.2 |
| 20260506201542 | 61 | 146 | 0.9 | 7.8 | 0.03 | 0.07 | 0.07 | 88 | 1006.1 |
| 20260506201028 | 61 | 200 | 0.9 | 7.0 | 0.03 | 0.07 | 0.07 | 88 | 1006.0 |
| 20260506200527 | 61 | 0 | 0.9 | 7.0 | 0.04 | 0.07 | 0.07 | 88 | 1006.1 |
| 20260506200037 | 62 | 270 | 0.0 | 6.1 | 0.03 | 0.06 | 0.06 | 88 | 1006.1 |
| 20260506195528 | 62 | 276 | 0.0 | 6.1 | 0.04 | 0.06 | 0.06 | 88 | 1006.1 |
| 20260506195027 | 62 | 202 | 0.0 | 3.5 | 0.05 | 0.06 | 0.06 | 88 | 1006.2 |
| 20260506194540 | 62 | 0 | 0.9 | 3.5 | 0.06 | 0.06 | 0.06 | 87 | 1006.2 |
| 20260506194031 | 62 | 151 | 0.0 | 8.7 | 0.06 | 0.06 | 0.06 | 88 | 1006.1 |
| 20260506193525 | 63 | 0 | 1.7 | 8.7 | 0.06 | 0.06 | 0.06 | 87 | 1006.2 |
| 20260506193038 | 63 | 288 | 0.9 | 1.7 | 0.05 | 0.05 | 0.05 | 87 | 1006.2 |
| 20260506192527 | 63 | 0 | 0.0 | 3.5 | 0.05 | 0.05 | 0.05 | 86 | 1006.1 |
| 20260506192030 | 63 | 0 | 0.0 | 3.5 | 0.04 | 0.04 | 0.04 | 85 | 1006.1 |
| 20260506191538 | 63 | 284 | 0.0 | 5.2 | 0.04 | 0.04 | 0.04 | 84 | 1006.1 |
| 20260506191027 | 64 | 272 | 0.0 | 12.2 | 0.04 | 0.04 | 0.04 | 82 | 1006.1 |
| 20260506190528 | 64 | 131 | 0.9 | 12.2 | 0.03 | 0.03 | 0.03 | 81 | 1006.2 |